FW3224 Weather Reports


time (UTC)temp
C
wind
direction
speed
KPH
gust
KPH
rain 1hr
cm
rain 24hr
cm
rain mn
cm
humidity
%
barometer
mb
20260905004550 25 273 9.7 17.7 0.00 0.00 0.00 40 1013.3
20260905004048 24 238 9.7 20.9 0.00 0.00 0.00 41 1013.5
20260905003547 24 258 6.4 22.5 0.00 0.00 0.00 41 1013.7
20260905003046 24 297 9.7 16.1 0.00 0.00 0.00 41 1013.8
20260905002545 24 279 8.0 16.1 0.00 0.00 0.00 42 1013.9
20260905002043 23 274 6.4 20.9 0.00 0.00 0.00 42 1014.0
20260905001542 23 264 8.0 17.7 0.00 0.00 0.00 41 1014.0
20260905001041 23 259 8.0 17.7 0.00 0.00 0.00 41 1014.1
20260905000542 23 303 6.4 20.9 0.00 0.00 0.00 41 1014.3
20260905000037 23 232 8.0 20.9 0.00 0.00 0.00 40 1014.4
20260904235535 23 250 4.8 16.1 0.00 0.00 0.00 42 1014.4
20260904235034 23 264 8.0 16.1 0.00 0.00 0.00 43 1014.5
20260904234533 23 275 6.4 20.9 0.00 0.00 0.00 43 1014.7
20260904234036 22 255 9.7 20.9 0.00 0.00 0.00 43 1014.8
20260904233530 22 227 11.3 20.9 0.00 0.00 0.00 44 1014.9
20260904233029 22 284 4.8 12.9 0.00 0.00 0.00 48 1014.9
20260904232528 22 267 6.4 12.9 0.00 0.00 0.00 47 1015.0
20260904232025 21 273 4.8 12.9 0.00 0.00 0.00 49 1015.1
20260904231524 21 319 4.8 14.5 0.00 0.00 0.00 51 1015.2
20260904231023 21 257 6.4 14.5 0.00 0.00 0.00 52 1015.3
20260904230524 21 291 4.8 14.5 0.00 0.00 0.00 52 1015.4
20260904230020 21 238 6.4 14.5 0.00 0.00 0.00 51 1015.5
20260904225521 21 302 6.4 14.5 0.00 0.00 0.00 51 1015.5
20260904225019 21 290 3.2 14.5 0.00 0.00 0.00 51 1015.6
20260904224520 20 281 4.8 14.5 0.00 0.00 0.00 50 1015.6
20260904224018 20 304 6.4 14.5 0.00 0.00 0.00 51 1015.7
20260904223516 20 279 4.8 11.3 0.00 0.00 0.00 51 1015.7
20260904223016 20 275 6.4 11.3 0.00 0.00 0.00 51 1015.7
20260904222515 20 297 3.2 12.9 0.00 0.00 0.00 52 1015.7
20260904222015 20 246 4.8 12.9 0.00 0.00 0.00 52 1015.7
20260904221514 20 276 0.0 9.7 0.00 0.00 0.00 53 1015.7
20260904221013 20 319 1.6 9.7 0.00 0.00 0.00 54 1015.7
20260904220512 20 292 3.2 8.0 0.00 0.00 0.00 54 1015.7
20260904220011 20 296 3.2 9.7 0.00 0.00 0.00 54 1015.9
20260904215510 19 271 3.2 9.7 0.00 0.00 0.00 54 1015.9
20260904215010 19 282 3.2 11.3 0.00 0.00 0.00 54 1016.0
20260904214510 19 263 4.8 12.9 0.00 0.00 0.00 54 1016.0
20260904214010 19 298 6.4 17.7 0.00 0.00 0.00 52 1016.0
20260904213510 19 288 6.4 17.7 0.00 0.00 0.00 52 1016.0
20260904213009 19 279 6.4 16.1 0.00 0.00 0.00 52 1015.9
20260904212509 19 307 4.8 17.7 0.00 0.00 0.00 52 1015.7
20260904212007 19 290 4.8 17.7 0.00 0.00 0.00 52 1015.7
20260904211508 19 286 4.8 14.5 0.00 0.00 0.00 52 1015.8
20260904211008 18 269 6.4 17.7 0.00 0.00 0.00 52 1015.8
20260904210505 18 251 6.4 16.1 0.00 0.00 0.00 53 1015.7
20260904210010 18 265 6.4 16.1 0.00 0.00 0.00 53 1015.7
20260904205504 18 275 8.0 16.1 0.00 0.00 0.00 53 1015.6
20260904205002 18 232 8.0 16.1 0.00 0.00 0.00 53 1015.7
20260904204501 18 279 9.7 17.7 0.00 0.00 0.00 53 1015.7
20260904204100 18 238 6.4 19.3 0.00 0.00 0.00 54 1015.6
20260904203559 18 296 9.7 19.3 0.00 0.00 0.00 54 1015.5
20260904203100 18 255 8.0 14.5 0.00 0.00 0.00 56 1015.6
20260904202558 18 297 4.8 16.1 0.00 0.00 0.00 56 1015.5
20260904202057 18 280 8.0 17.7 0.00 0.00 0.00 56 1015.5
20260904201558 18 263 9.7 17.7 0.00 0.00 0.00 56 1015.6
20260904201055 17 250 9.7 16.1 0.00 0.00 0.00 56 1015.6
20260904200554 17 280 8.0 16.1 0.00 0.00 0.00 57 1015.7
20260904200110 17 259 9.7 17.7 0.00 0.00 0.00 58 1015.6
20260904195555 17 274 8.0 17.7 0.00 0.00 0.00 60 1015.8
20260904195049 16 261 8.0 14.5 0.00 0.00 0.00 61 1015.8
20260904194551 16 277 6.4 14.5 0.00 0.00 0.00 63 1015.9
20260904194048 16 255 6.4 12.9 0.00 0.00 0.00 64 1015.9
20260904193548 16 273 6.4 12.9 0.00 0.00 0.00 65 1016.0
20260904193048 15 281 3.2 12.9 0.00 0.00 0.00 66 1016.0
20260904192548 15 289 4.8 12.9 0.00 0.00 0.00 66 1016.0
20260904192047 15 294 3.2 9.7 0.00 0.00 0.00 65 1016.0
20260904191547 16 287 4.8 9.7 0.00 0.00 0.00 65 1016.0
20260904191047 15 285 3.2 8.0 0.00 0.00 0.00 66 1016.1
20260904190546 15 289 3.2 6.4 0.00 0.00 0.00 66 1016.1
20260904190050 15 268 3.2 6.4 0.00 0.00 0.00 66 1016.0
20260904185546 15 279 3.2 6.4 0.00 0.00 0.00 66 1015.9
20260904185046 15 275 3.2 11.3 0.00 0.00 0.00 66 1015.8
20260904184545 15 284 3.2 12.9 0.00 0.00 0.00 66 1015.8
20260904184045 15 279 4.8 16.1 0.00 0.00 0.00 66 1015.8
20260904183547 15 281 4.8 16.1 0.00 0.00 0.00 66 1015.8
20260904183044 15 286 3.2 14.5 0.00 0.00 0.00 66 1015.7
20260904182548 15 269 6.4 16.1 0.00 0.00 0.00 66 1015.7
20260904182043 15 326 8.0 16.1 0.00 0.00 0.00 66 1015.7
20260904181547 15 315 8.0 16.1 0.00 0.00 0.00 66 1015.7
20260904181043 15 254 8.0 16.1 0.00 0.00 0.00 66 1015.6
20260904180541 15 290 9.7 16.1 0.00 0.00 0.00 66 1015.7
20260904180047 15 304 4.8 14.5 0.00 0.00 0.00 67 1015.8
20260904175540 15 311 4.8 12.9 0.00 0.00 0.00 67 1015.8
20260904175040 15 267 4.8 12.9 0.00 0.00 0.00 67 1015.8
20260904174541 15 262 4.8 12.9 0.00 0.00 0.00 67 1015.8
20260904174040 15 267 4.8 14.5 0.00 0.00 0.00 67 1015.9
20260904173539 15 284 6.4 14.5 0.00 0.00 0.00 67 1015.8
20260904173054 15 283 4.8 11.3 0.00 0.00 0.00 67 1015.9
20260904172538 15 266 6.4 16.1 0.00 0.00 0.00 67 1016.0
20260904172038 15 281 4.8 16.1 0.00 0.00 0.00 67 1015.9
20260904171544 15 288 6.4 16.1 0.00 0.00 0.00 67 1015.8
20260904171036 15 275 4.8 16.1 0.00 0.00 0.00 67 1015.9
20260904170535 15 315 4.8 12.9 0.00 0.00 0.00 67 1015.9
20260904170039 15 305 4.8 12.9 0.00 0.00 0.00 66 1016.0
20260904165538 15 273 4.8 12.9 0.00 0.00 0.00 66 1016.1
20260904165033 15 324 6.4 12.9 0.00 0.00 0.00 65 1016.2
20260904164532 15 300 6.4 11.3 0.00 0.00 0.00 65 1016.2
20260904164031 15 293 6.4 9.7 0.00 0.00 0.00 64 1016.3
20260904163530 15 323 4.8 11.3 0.00 0.00 0.00 64 1016.3
20260904163030 15 294 3.2 6.4 0.00 0.00 0.00 63 1016.5
20260904162529 16 301 3.2 8.0 0.00 0.00 0.00 62 1016.5
20260904162027 16 310 4.8 11.3 0.00 0.00 0.00 62 1016.6
20260904161526 16 266 3.2 11.3 0.00 0.00 0.00 62 1016.8
20260904161028 16 277 4.8 8.0 0.00 0.00 0.00 61 1016.8
20260904160526 16 285 3.2 8.0 0.00 0.00 0.00 61 1016.9
20260904160028 16 327 4.8 12.9 0.00 0.00 0.00 61 1016.9
20260904155523 16 295 6.4 12.9 0.00 0.00 0.00 61 1017.1
20260904155022 16 307 4.8 11.3 0.00 0.00 0.00 62 1017.1
20260904154521 16 306 4.8 11.3 0.00 0.00 0.00 62 1017.1
20260904154020 16 293 4.8 8.0 0.00 0.00 0.00 63 1017.3
20260904153520 15 300 4.8 8.0 0.00 0.00 0.00 64 1017.4
20260904153019 15 303 4.8 8.0 0.00 0.00 0.00 65 1017.5
20260904152519 15 288 4.8 8.0 0.00 0.00 0.00 65 1017.6
20260904152018 15 299 4.8 8.0 0.00 0.00 0.00 66 1017.6
20260904151517 15 302 4.8 8.0 0.00 0.00 0.00 66 1017.6
20260904151017 15 297 4.8 9.7 0.00 0.00 0.00 66 1017.6
20260904150517 15 297 4.8 9.7 0.00 0.00 0.00 66 1017.6
20260904150016 15 281 4.8 6.4 0.00 0.00 0.00 67 1017.6
20260904145515 16 281 4.8 9.7 0.00 0.00 0.00 67 1017.5
20260904145014 16 277 4.8 9.7 0.00 0.00 0.00 66 1017.6
20260904144515 16 284 4.8 9.7 0.00 0.00 0.00 66 1017.7
20260904144013 16 290 4.8 8.0 0.00 0.00 0.00 66 1017.7
20260904143514 16 305 3.2 8.0 0.00 0.00 0.00 67 1017.8
20260904143017 16 329 4.8 12.9 0.00 0.00 0.00 68 1017.8
20260904142511 16 316 6.4 12.9 0.00 0.00 0.00 69 1017.7
20260904142013 16 311 4.8 8.0 0.00 0.00 0.00 71 1017.7
20260904141511 16 315 4.8 8.0 0.00 0.00 0.00 72 1017.7
20260904141009 16 317 1.6 6.4 0.00 0.00 0.00 72 1017.8
20260904140508 16 312 3.2 8.0 0.00 0.00 0.00 71 1017.8
20260904140008 16 314 3.2 8.0 0.00 0.00 0.00 71 1017.7
20260904135507 16 325 3.2 8.0 0.00 0.00 0.00 71 1017.7
20260904135006 16 314 3.2 8.0 0.00 0.00 0.00 70 1017.7
20260904134513 17 306 4.8 8.0 0.00 0.00 0.00 68 1017.7
20260904134006 17 286 3.2 4.8 0.00 0.00 0.00 68 1017.7
20260904133507 16 297 1.6 4.8 0.00 0.00 0.00 68 1017.8
20260904133009 16 297 1.6 4.8 0.00 0.00 0.00 69 1017.8
20260904132506 16 297 1.6 4.8 0.00 0.00 0.00 71 1017.8
20260904132107 16 279 3.2 6.4 0.00 0.00 0.00 73 1017.8
20260904131505 15 292 3.2 4.8 0.00 0.00 0.00 77 1017.8
20260904131005 15 279 0.0 0.0 0.00 0.00 0.00 79 1017.8
20260904130507 15 279 0.0 3.2 0.00 0.00 0.00 79 1017.8
20260904130004 15 279 0.0 8.0 0.00 0.00 0.00 78 1017.8
20260904125505 15 279 1.6 8.0 0.00 0.00 0.00 78 1017.9
20260904125004 16 286 4.8 9.7 0.00 0.00 0.00 76 1017.9
20260904124504 16 321 3.2 9.7 0.00 0.00 0.00 76 1017.8
20260904124003 15 273 0.0 0.0 0.00 0.00 0.00 78 1017.8
20260904123503 15 273 0.0 0.0 0.00 0.00 0.00 78 1017.9
20260904123003 15 273 0.0 0.0 0.00 0.00 0.00 78 1017.9
20260904122503 16 273 0.0 4.8 0.00 0.00 0.00 77 1018.1
20260904122005 16 273 0.0 4.8 0.00 0.00 0.00 76 1018.1
20260904121503 16 268 3.2 6.4 0.00 0.00 0.00 75 1018.1
20260904121002 16 323 1.6 6.4 0.00 0.00 0.00 75 1018.1
20260904120502 16 325 3.2 6.4 0.00 0.00 0.00 76 1018.2
20260904120004 16 309 3.2 6.4 0.00 0.00 0.00 76 1018.2
20260904115502 16 300 3.2 8.0 0.00 0.00 0.00 77 1018.2
20260904115003 16 296 3.2 8.0 0.00 0.00 0.00 78 1018.2
20260904114502 16 279 3.2 6.4 0.00 0.00 0.00 77 1018.2
20260904114003 16 286 3.2 6.4 0.00 0.00 0.00 77 1018.3
20260904113501 16 286 3.2 8.0 0.00 0.00 0.00 76 1018.4
20260904113101 16 292 3.2 12.9 0.00 0.00 0.00 75 1018.3
20260904112601 16 269 4.8 12.9 0.00 0.00 0.00 75 1018.4
20260904112101 16 284 4.8 12.9 0.00 0.00 0.00 76 1018.3
20260904111600 16 309 3.2 8.0 0.00 0.00 0.00 76 1018.2
20260904111059 16 265 1.6 9.7 0.00 0.00 0.00 76 1018.2
20260904110559 16 259 3.2 8.0 0.00 0.00 0.00 76 1018.2
20260904110059 16 289 3.2 9.7 0.00 0.00 0.00 75 1018.1
20260904105559 16 282 3.2 12.9 0.00 0.00 0.00 75 1018.1
20260904105101 16 254 6.4 12.9 0.00 0.00 0.00 75 1018.0
20260904104600 16 315 3.2 12.9 0.00 0.00 0.00 75 1018.0
20260904104059 16 285 3.2 6.4 0.00 0.00 0.00 75 1017.9
20260904103559 16 263 3.2 6.4 0.00 0.00 0.00 76 1017.8
20260904103059 16 313 1.6 9.7 0.00 0.00 0.00 75 1017.7
20260904102602 16 338 3.2 9.7 0.00 0.00 0.00 75 1017.7
20260904102100 16 333 1.6 8.0 0.00 0.00 0.00 75 1017.6
20260904101559 16 324 3.2 8.0 0.00 0.00 0.00 75 1017.6
20260904101058 16 316 3.2 8.0 0.00 0.00 0.00 76 1017.5
20260904100557 16 320 1.6 6.4 0.00 0.00 0.00 76 1017.4
20260904100105 16 325 0.0 4.8 0.00 0.00 0.00 75 1017.4
20260904095557 16 13 0.0 6.4 0.00 0.00 0.00 75 1017.3
20260904095057 16 336 0.0 6.4 0.00 0.00 0.00 75 1017.4
20260904094602 16 254 0.0 4.8 0.00 0.00 0.00 75 1017.3
20260904094057 16 257 1.6 8.0 0.00 0.00 0.00 74 1017.3
20260904093558 16 263 1.6 6.4 0.00 0.00 0.00 74 1017.2
20260904093057 16 261 1.6 9.7 0.00 0.00 0.00 74 1017.2
20260904092556 16 344 1.6 14.5 0.00 0.00 0.00 74 1017.1
20260904092056 16 279 4.8 12.9 0.00 0.00 0.00 75 1016.9
20260904091556 16 248 1.6 9.7 0.00 0.00 0.00 75 1017.0
20260904091057 16 314 0.0 9.7 0.00 0.00 0.00 75 1017.0
20260904090556 16 303 1.6 9.7 0.00 0.00 0.00 75 1016.9
20260904090105 16 298 1.6 4.8 0.00 0.00 0.00 75 1016.8
20260904085556 16 17 1.6 6.4 0.00 0.00 0.00 75 1016.9
20260904085056 16 334 0.0 6.4 0.00 0.00 0.00 75 1016.9
20260904084558 16 301 1.6 6.4 0.00 0.00 0.00 75 1016.9
20260904084054 16 337 0.0 8.0 0.00 0.00 0.00 76 1016.8
20260904083554 16 316 1.6 8.0 0.00 0.00 0.00 76 1016.8
20260904083137 16 319 0.0 4.8 0.00 0.00 0.00 76 1016.9
20260904082554 16 32 1.6 6.4 0.00 0.00 0.00 76 1016.8
20260904082053 16 284 0.0 6.4 0.00 0.00 0.00 76 1016.8
20260904081554 16 30 1.6 4.8 0.00 0.00 0.00 76 1016.7
20260904081053 16 5 0.0 6.4 0.00 0.00 0.00 76 1016.6
20260904080552 16 13 0.0 8.0 0.00 0.00 0.00 76 1016.5
20260904080052 16 317 1.6 11.3 0.00 0.00 0.00 76 1016.4
20260904075552 16 328 1.6 11.3 0.00 0.00 0.00 76 1016.4
20260904075052 16 51 1.6 8.0 0.00 0.00 0.00 75 1016.4
20260904074551 17 23 1.6 8.0 0.00 0.00 0.00 75 1016.5
20260904074052 17 153 0.0 4.8 0.00 0.00 0.00 74 1016.4
20260904073552 17 342 0.0 8.0 0.00 0.00 0.00 74 1016.4
20260904073058 17 141 1.6 8.0 0.00 0.00 0.00 73 1016.3
20260904072550 17 325 1.6 8.0 0.00 0.00 0.00 73 1016.3
20260904072051 17 132 3.2 8.0 0.00 0.00 0.00 73 1016.4
20260904071616 17 155 1.6 11.3 0.00 0.00 0.00 72 1016.3
20260904071050 17 71 3.2 11.3 0.00 0.00 0.00 72 1016.2
20260904070549 17 57 3.2 11.3 0.00 0.00 0.00 71 1016.1
20260904070111 18 60 1.6 9.7 0.00 0.00 0.00 71 1016.2
20260904065549 18 65 3.2 9.7 0.00 0.00 0.00 70 1016.2
20260904065048 18 63 1.6 9.7 0.00 0.00 0.00 70 1016.1
20260904064549 18 79 3.2 6.4 0.00 0.00 0.00 69 1016.2
20260904064051 18 55 1.6 6.4 0.00 0.00 0.00 68 1016.2
20260904063548 18 51 1.6 8.0 0.00 0.00 0.00 67 1016.2
20260904063100 18 73 3.2 8.0 0.00 0.00 0.00 67 1016.2
20260904062552 19 88 1.6 6.4 0.00 0.00 0.00 66 1016.2
20260904062047 19 65 1.6 4.8 0.00 0.00 0.00 65 1016.2
20260904061547 19 60 0.0 8.0 0.00 0.00 0.00 65 1016.2
20260904061048 19 217 1.6 8.0 0.00 0.00 0.00 65 1016.2
20260904060547 20 59 1.6 6.4 0.00 0.00 0.00 64 1016.2
20260904060046 20 64 1.6 8.0 0.00 0.00 0.00 63 1016.2
20260904055546 20 88 1.6 8.0 0.00 0.00 0.00 62 1016.2
20260904055045 20 71 1.6 11.3 0.00 0.00 0.00 61 1016.3
20260904054549 20 67 3.2 11.3 0.00 0.00 0.00 60 1016.3
20260904054045 20 114 1.6 4.8 0.00 0.00 0.00 60 1016.4
20260904053544 20 121 0.0 8.0 0.00 0.00 0.00 60 1016.3
20260904053056 20 51 1.6 8.0 0.00 0.00 0.00 59 1016.4
20260904052543 20 76 1.6 14.5 0.00 0.00 0.00 58 1016.5
20260904052043 20 67 3.2 14.5 0.00 0.00 0.00 58 1016.5
20260904051544 21 103 3.2 14.5 0.00 0.00 0.00 55 1016.6
20260904051041 21 69 1.6 6.4 0.00 0.00 0.00 55 1016.7
20260904050541 21 32 1.6 6.4 0.00 0.00 0.00 54 1016.6
20260904050043 21 59 3.2 6.4 0.00 0.00 0.00 53 1016.6
20260904045541 22 43 1.6 9.7 0.00 0.00 0.00 53 1016.6
20260904045040 21 346 1.6 9.7 0.00 0.00 0.00 52 1016.7
20260904044539 22 82 3.2 11.3 0.00 0.00 0.00 51 1016.8
20260904044041 22 63 1.6 9.7 0.00 0.00 0.00 50 1016.9
20260904043538 23 82 3.2 9.7 0.00 0.00 0.00 47 1016.9
20260904043044 23 192 1.6 17.7 0.00 0.00 0.00 42 1017.0
20260904042542 23 242 4.8 17.7 0.00 0.00 0.00 41 1017.0
20260904042037 23 178 3.2 12.9 0.00 0.00 0.00 43 1017.0
20260904041537 23 300 4.8 14.5 0.00 0.00 0.00 44 1017.0
20260904041037 23 235 6.4 16.1 0.00 0.00 0.00 43 1017.0
20260904040534 23 291 6.4 16.1 0.00 0.00 0.00 43 1017.1
20260904040039 23 255 6.4 12.9 0.00 0.00 0.00 43 1017.2
20260904035534 22 101 1.6 17.7 0.00 0.00 0.00 43 1017.2
20260904035031 22 306 4.8 17.7 0.00 0.00 0.00 43 1017.3
20260904034531 22 246 1.6 19.3 0.00 0.00 0.00 45 1017.3
20260904034029 22 223 11.3 19.3 0.00 0.00 0.00 43 1017.4
20260904033529 22 329 3.2 16.1 0.00 0.00 0.00 45 1017.5
20260904033030 22 252 8.0 17.7 0.00 0.00 0.00 44 1017.6
20260904032528 22 292 6.4 19.3 0.00 0.00 0.00 44 1017.6
20260904032027 22 249 8.0 19.3 0.00 0.00 0.00 43 1017.7
20260904031535 22 15 4.8 16.1 0.00 0.00 0.00 44 1017.7
20260904031025 22 242 6.4 16.1 0.00 0.00 0.00 44 1017.6
20260904030524 21 265 4.8 16.1 0.00 0.00 0.00 45 1017.7
20260904030025 21 237 6.4 16.1 0.00 0.00 0.00 44 1017.9
20260904025524 21 273 6.4 17.7 0.00 0.00 0.00 45 1018.0
20260904025022 22 275 9.7 17.7 0.00 0.00 0.00 43 1018.0
20260904024522 22 5 3.2 12.9 0.00 0.00 0.00 44 1018.2
20260904024023 22 325 4.8 14.5 0.00 0.00 0.00 44 1018.4
20260904023519 21 286 1.6 14.5 0.00 0.00 0.00 46 1018.5
20260904023019 21 287 4.8 16.1 0.00 0.00 0.00 45 1018.5
20260904022518 21 253 6.4 16.1 0.00 0.00 0.00 45 1018.6
20260904022019 21 240 3.2 12.9 0.00 0.00 0.00 46 1018.8
20260904021523 21 178 1.6 14.5 0.00 0.00 0.00 46 1018.9
20260904021015 21 171 1.6 16.1 0.00 0.00 0.00 45 1019.0
20260904020515 21 281 3.2 16.1 0.00 0.00 0.00 49 1019.1
20260904020017 21 308 8.0 14.5 0.00 0.00 0.00 46 1019.2
20260904015518 20 84 1.6 14.5 0.00 0.00 0.00 48 1019.4
20260904015013 20 216 3.2 14.5 0.00 0.00 0.00 48 1019.5
20260904014513 20 236 3.2 11.3 0.00 0.00 0.00 49 1019.5
20260904014014 20 240 3.2 9.7 0.00 0.00 0.00 49 1019.6
20260904013510 20 171 3.2 11.3 0.00 0.00 0.00 49 1019.5
20260904013012 20 238 4.8 11.3 0.00 0.00 0.00 50 1019.5
20260904012509 20 204 4.8 12.9 0.00 0.00 0.00 49 1019.7
20260904012009 20 284 4.8 12.9 0.00 0.00 0.00 49 1019.8
20260904011508 20 228 1.6 9.7 0.00 0.00 0.00 50 1019.8
20260904011007 20 219 4.8 9.7 0.00 0.00 0.00 50 1019.9
20260904010506 20 154 3.2 8.0 0.00 0.00 0.00 50 1020.0
20260904010006 20 191 3.2 8.0 0.00 0.00 0.00 50 1020.1
20260904005508 20 159 1.6 8.0 0.00 0.00 0.00 50 1020.3